When you browse on this site, cookies collect data to enhance your experience and personalize the content and advertising you see.
Visit our Privacy Policy to learn more. By continuing to use the site, you agree to this use of cookies and data.
  • în România
  • Lista ţărilor
  • Pe 7 zile
  • Temperatura apei
  • Hartă satelitară
  • Meteo pe hartă
  • Widget-uri
  • user-avatar
    Intrare

    Meteo pe oră la Pietrzykow

    Astăzi, 23 Februarie, Sâmbătă

    Timp Temperatura Precipitaţii Vânt Presiune Umiditate
    00:00 -5°C° 0 mm 2 m/s 752 mmHg 57%
    01:00 -3°C° 0 mm 1 m/s 753 mmHg 55%
    02:00 -3°C° 0 mm 1 m/s 752 mmHg 54%
    03:00 -3°C° 0 mm 1 m/s 752 mmHg 53%
    04:00 -4°C° 0 mm 1 m/s 752 mmHg 51%
    05:00 -4°C° 0 mm 1 m/s 752 mmHg 51%
    06:00 -4°C° 0 mm 1 m/s 752 mmHg 50%
    07:00 -4°C° 0 mm 1 m/s 753 mmHg 50%
    08:00 -3°C° 0 mm 1 m/s 753 mmHg 43%
    09:00 -2°C° 0 mm 1 m/s 753 mmHg 37%
    10:00 -1°C° 0 mm 1 m/s 753 mmHg 30%
    11:00 0°C° 0 mm 1 m/s 752 mmHg 28%
    12:00 -1°C° 0 mm 2 m/s 752 mmHg 26%
    13:00 -1°C° 0 mm 2 m/s 753 mmHg 22%
    14:00 -1°C° 0 mm 2 m/s 752 mmHg 24%
    15:00 +1°C° 0 mm 2 m/s 751 mmHg 25%
    16:00 +1°C° 0 mm 2 m/s 751 mmHg 26%
    17:00 +1°C° 0 mm 1 m/s 751 mmHg 30%
    18:00 0°C° 0 mm 1 m/s 751 mmHg 35%
    19:00 -2°C° 0 mm 1 m/s 751 mmHg 39%
    20:00 -1°C° 0 mm 1 m/s 750 mmHg 39%
    21:00 -1°C° 0 mm 1 m/s 750 mmHg 38%
    22:00 -1°C° 0 mm 1 m/s 750 mmHg 38%
    23:00 -1°C° 0 mm 1 m/s 750 mmHg 37%

    Mâine, 24 Februarie, Duminică

    Timp Temperatura Precipitaţii Vânt Presiune Umiditate
    00:00 -1°C° 0 mm 1 m/s 750 mmHg 36%
    01:00 -1°C° 0 mm 1 m/s 750 mmHg 35%
    02:00 -1°C° 0 mm 1 m/s 750 mmHg 34%
    03:00 0°C° 0 mm 1 m/s 749 mmHg 33%
    04:00 -1°C° 0 mm 0 m/s 749 mmHg 33%
    05:00 -1°C° 0 mm 0 m/s 749 mmHg 33%
    06:00 -1°C° 0 mm 0 m/s 749 mmHg 33%
    07:00 -1°C° 0 mm 0 m/s 749 mmHg 33%
    08:00 +1°C° 0 mm 0 m/s 749 mmHg 32%
    09:00 +2°C° 0 mm 0 m/s 749 mmHg 32%
    10:00 +3°C° 0 mm 0 m/s 749 mmHg 31%
    11:00 +5°C° 0 mm 1 m/s 749 mmHg 31%
    12:00 +6°C° 0 mm 1 m/s 749 mmHg 31%
    13:00 +7°C° 0 mm 2 m/s 749 mmHg 31%
    14:00 +6°C° 0 mm 2 m/s 748 mmHg 37%
    15:00 +6°C° 0 mm 2 m/s 748 mmHg 42%
    16:00 +6°C° 0 mm 2 m/s 748 mmHg 48%
    17:00 +4°C° 0 mm 2 m/s 748 mmHg 50%
    18:00 +3°C° 0 mm 2 m/s 748 mmHg 52%
    19:00 +3°C° 0 mm 1 m/s 748 mmHg 55%
    20:00 +3°C° 0 mm 1 m/s 748 mmHg 55%
    21:00 +3°C° 0 mm 1 m/s 748 mmHg 56%
    22:00 +3°C° 0 mm 1 m/s 748 mmHg 56%
    23:00 +2°C° 0 mm 2 m/s 748 mmHg 57%

    Poimâine, 25 Februarie, Luni

    Timp Temperatura Precipitaţii Vânt Presiune Umiditate
    00:00 +2°C° 0 mm 2 m/s 748 mmHg 58%
    01:00 +2°C° 0 mm 2 m/s 748 mmHg 59%
    02:00 +2°C° 0 mm 2 m/s 748 mmHg 60%
    03:00 +2°C° 0 mm 2 m/s 748 mmHg 60%
    04:00 +2°C° 0 mm 2 m/s 747 mmHg 61%
    05:00 +2°C° 0 mm 2 m/s 747 mmHg 62%
    06:00 +2°C° 0 mm 2 m/s 747 mmHg 64%
    07:00 +2°C° 0 mm 2 m/s 747 mmHg 65%
    08:00 +3°C° 0 mm 2 m/s 748 mmHg 61%
    09:00 +4°C° 0 mm 3 m/s 748 mmHg 56%
    10:00 +7°C° 0 mm 3 m/s 748 mmHg 51%
    11:00 +8°C° 0 mm 3 m/s 748 mmHg 49%
    12:00 +8°C° 0 mm 4 m/s 748 mmHg 47%
    13:00 +8°C° 0 mm 4 m/s 747 mmHg 45%
    14:00 +8°C° 0 mm 4 m/s 747 mmHg 48%
    15:00 +9°C° 0 mm 3 m/s 747 mmHg 52%
    16:00 +8°C° 0 mm 3 m/s 746 mmHg 55%
    17:00 +7°C° 0 mm 3 m/s 746 mmHg 61%
    18:00 +4°C° 0 mm 3 m/s 746 mmHg 66%
    19:00 +3°C° 0 mm 3 m/s 746 mmHg 71%
    20:00 +3°C° 0 mm 3 m/s 746 mmHg 74%
    21:00 +2°C° 0 mm 3 m/s 746 mmHg 77%
    22:00 +2°C° 0 mm 3 m/s 746 mmHg 80%
    23:00 +2°C° 0 mm 3 m/s 746 mmHg 81%

    26 Februarie, Marţi

    Timp Temperatura Precipitaţii Vânt Presiune Umiditate
    00:00 +2°C° 0 mm 3 m/s 746 mmHg 82%
    01:00 +2°C° 0 mm 2 m/s 746 mmHg 83%
    02:00 +2°C° 0 mm 3 m/s 746 mmHg 82%
    03:00 +2°C° 0 mm 3 m/s 745 mmHg 82%
    04:00 +2°C° 0 mm 3 m/s 745 mmHg 81%
    05:00 +2°C° 0 mm 3 m/s 745 mmHg 83%
    06:00 +1°C° 0 mm 4 m/s 745 mmHg 85%
    07:00 +1°C° 0 mm 4 m/s 744 mmHg 88%
    08:00 +4°C° 0 mm 4 m/s 744 mmHg 80%
    09:00 +5°C° 0 mm 5 m/s 744 mmHg 73%
    10:00 +7°C° 0 mm 6 m/s 744 mmHg 66%
    11:00 +8°C° 0 mm 6 m/s 744 mmHg 62%
    12:00 +9°C° 0 mm 6 m/s 744 mmHg 58%
    13:00 +10°C° 0 mm 6 m/s 744 mmHg 54%
    14:00 +9°C° 0 mm 6 m/s 744 mmHg 56%
    15:00 +9°C° 0 mm 6 m/s 743 mmHg 58%
    16:00 +9°C° 0 mm 6 m/s 743 mmHg 59%
    17:00 +8°C° 0 mm 5 m/s 743 mmHg 64%
    18:00 +6°C° 0 mm 5 m/s 743 mmHg 68%
    19:00 +5°C° 0 mm 4 m/s 744 mmHg 73%
    20:00 +5°C° 0 mm 4 m/s 744 mmHg 75%
    21:00 +4°C° 0 mm 3 m/s 744 mmHg 77%
    22:00 +4°C° 0 mm 3 m/s 744 mmHg 80%
    23:00 +3°C° 0 mm 3 m/s 744 mmHg 82%

    27 Februarie, Miercuri

    Timp Temperatura Precipitaţii Vânt Presiune Umiditate
    00:00 +4°C° 0 mm 2 m/s 744 mmHg 84%
    01:00 +3°C° 0 mm 2 m/s 744 mmHg 86%
    02:00 +3°C° 0 mm 2 m/s 744 mmHg 86%
    03:00 +3°C° 0 mm 2 m/s 744 mmHg 86%
    04:00 +3°C° 0 mm 2 m/s 743 mmHg 87%
    05:00 +3°C° 0 mm 2 m/s 743 mmHg 86%
    06:00 +3°C° 0 mm 2 m/s 743 mmHg 85%
    07:00 +3°C° 0 mm 2 m/s 743 mmHg 84%
    08:00 +5°C° 0 mm 2 m/s 743 mmHg 75%
    09:00 +7°C° 0 mm 3 m/s 743 mmHg 66%
    10:00 +9°C° 0 mm 3 m/s 743 mmHg 57%
    11:00 +10°C° 0 mm 4 m/s 742 mmHg 53%
    12:00 +11°C° 0 mm 4 m/s 742 mmHg 48%
    13:00 +13°C° 0 mm 4 m/s 742 mmHg 44%
    14:00 +12°C° 0 mm 4 m/s 741 mmHg 45%
    15:00 +12°C° 0 mm 4 m/s 741 mmHg 47%
    16:00 +12°C° 0 mm 4 m/s 740 mmHg 48%
    17:00 +10°C° 0 mm 3 m/s 740 mmHg 53%
    18:00 +9°C° 0 mm 3 m/s 739 mmHg 58%
    19:00 +7°C° 0 mm 3 m/s 739 mmHg 63%
    20:00 +7°C° 0 mm 3 m/s 739 mmHg 61%
    21:00 +7°C° 0 mm 3 m/s 738 mmHg 59%
    22:00 +7°C° 0 mm 3 m/s 738 mmHg 58%
    23:00 +7°C° 0 mm 3 m/s 737 mmHg 56%

    28 Februarie, Joi

    Timp Temperatura Precipitaţii Vânt Presiune Umiditate
    00:00 +7°C° 0 mm 3 m/s 737 mmHg 55%
    01:00 +7°C° 0 mm 3 m/s 736 mmHg 54%
    02:00 +6°C° 0 mm 4 m/s 736 mmHg 55%
    03:00 +6°C° 0 mm 4 m/s 735 mmHg 55%
    04:00 +6°C° 0 mm 5 m/s 734 mmHg 55%
    05:00 +5°C° 0 mm 5 m/s 734 mmHg 60%
    06:00 +5°C° 0 mm 5 m/s 734 mmHg 65%
    07:00 +4°C° 0 mm 6 m/s 733 mmHg 70%
    08:00 +5°C° 0 mm 7 m/s 733 mmHg 71%
    09:00 +6°C° 0 mm 8 m/s 733 mmHg 72%
    10:00 +7°C° 0 mm 9 m/s 733 mmHg 73%
    11:00 +7°C° 0 mm 9 m/s 733 mmHg 72%
    12:00 +7°C° 0 mm 9 m/s 733 mmHg 71%
    13:00 +7°C° 0 mm 9 m/s 733 mmHg 71%
    14:00 +7°C° 0 mm 9 m/s 733 mmHg 71%
    15:00 +7°C° 0 mm 9 m/s 733 mmHg 71%
    16:00 +6°C° 0 mm 9 m/s 733 mmHg 72%
    17:00 +6°C° 0 mm 8 m/s 733 mmHg 73%
    18:00 +6°C° 0 mm 8 m/s 733 mmHg 74%
    19:00 +6°C° 0 mm 7 m/s 733 mmHg 76%
    20:00 +5°C° 0 mm 7 m/s 733 mmHg 74%
    21:00 +5°C° 0 mm 8 m/s 734 mmHg 72%
    22:00 +4°C° 0 mm 8 m/s 734 mmHg 70%
    23:00 +2°C° 0 mm 8 m/s 734 mmHg 73%
    Arată mai mult